Meadow Lake, CO

11:42 AM MDT on October 18, 2017 (GMT -0600)
Meadow Lake

Weather History for KFLY - October, 2013

Change the Weather History Date:

Sunday, October 6, 2013

  Actual Average (KCOS) Record (KCOS)
Temperature  
Mean Temperature 48 °F -  
Max Temperature 65 °F 66 °F 82 °F (1975)
Min Temperature 31 °F 39 °F 22 °F (1946)
Degree Days  
Heating Degree Days 17    
Moisture  
Dew Point 15 °F    
Average Humidity 29    
Maximum Humidity 61    
Minimum Humidity 15    
Precipitation  
Precipitation 0.00 in - - ()
Sea Level Pressure  
Sea Level Pressure 30.32 in    
Wind  
Wind Speed 7 mph (NW)    
Max Wind Speed 13 mph    
Max Gust Speed -    
Visibility 10 miles    
Events      
Averages and records for this station are not official NWS values.
T = Trace of Precipitation, MM = Missing Value Source: NWS Daily Summary

Daily Weather History Graph

Daily Weather History Graph

Search for Another Location

Airport or City:

Trip Planner

Search our weather history database for the weather conditions in past years. The results will help you decide how hot, cold, wet, or windy it might be!

Date:

Astronomy

Oct. 06, 2013 Rise Set
Actual Time 6:59 AM MDT 6:32 PM MDT
Civil Twilight 6:32 AM MDT 6:59 PM MDT
Nautical Twilight 6:01 AM MDT 7:30 PM MDT
Astronomical Twilight 5:30 AM MDT 8:01 PM MDT
Moon 8:45 AM MDT (10/6) 7:35 PM MDT (10/6)
Length of Visible Light 12h 26m
Length of Day
11h 33m
Waxing Crescent, 4% of the Moon is Illuminated
Oct 6
Waxing Crescent
Oct 11
First Quarter
Oct 18
Full
Oct 26
Last Quarter
Nov 3
New

Hourly Weather History & Observations

Time (MDT) Temp. Windchill Dew Point Humidity Pressure Visibility Wind Dir Wind Speed Gust Speed Precip Events Conditions
12:14 AM 32.2 °F 22.7 °F 13.6 °F 46% 30.27 in 10.0 mi NW 12.7 mph - N/A   Clear
12:34 AM 31.6 °F 22.6 °F 14.5 °F 49% 30.27 in 10.0 mi NW 11.5 mph - N/A   Clear
12:54 AM 32.4 °F 26.0 °F 12.4 °F 44% 30.27 in 10.0 mi WNW 6.9 mph - N/A   Clear
1:14 AM 32.0 °F 23.6 °F 11.5 °F 43% 30.27 in 10.0 mi NW 10.4 mph - N/A   Clear
1:34 AM 32.2 °F 22.7 °F 11.7 °F 43% 30.27 in 10.0 mi NW 12.7 mph - N/A   Clear
1:54 AM 32.0 °F 25.6 °F 11.3 °F 42% 30.27 in 10.0 mi NW 6.9 mph - N/A   Clear
2:14 AM 31.8 °F 24.6 °F 10.2 °F 41% 30.27 in 10.0 mi NW 8.1 mph - N/A   Clear
2:34 AM 34.0 °F 27.2 °F 8.6 °F 35% 30.27 in 10.0 mi NNW 8.1 mph - N/A   Clear
2:54 AM 31.6 °F 23.1 °F 11.1 °F 43% 30.26 in 10.0 mi NW 10.4 mph - N/A   Clear
3:14 AM 35.4 °F 27.8 °F 8.4 °F 33% 30.26 in 10.0 mi NNW 10.4 mph - N/A   Clear
3:34 AM 36.9 °F 30.1 °F 6.3 °F 28% 30.26 in 10.0 mi NW 9.2 mph - N/A   Clear
3:54 AM 37.0 °F 31.0 °F 6.1 °F 28% 30.27 in 10.0 mi NW 8.1 mph - N/A   Clear
4:14 AM 37.4 °F 32.1 °F 5.2 °F 26% 30.27 in 10.0 mi NNW 6.9 mph - N/A   Clear
4:34 AM 37.6 °F 34.0 °F 5.4 °F 26% 30.28 in 10.0 mi NNW 4.6 mph - N/A   Clear
4:54 AM 38.8 °F 33.8 °F 4.1 °F 24% 30.29 in 10.0 mi NNW 6.9 mph - N/A   Clear
5:14 AM 41.4 °F 36.8 °F 2.1 °F 20% 30.29 in 10.0 mi North 6.9 mph - N/A   Clear
5:34 AM 42.8 °F 37.5 °F 1.6 °F 18% 30.29 in 10.0 mi North 9.2 mph - N/A   Clear
5:54 AM 42.3 °F 36.8 °F 3.2 °F 20% 30.29 in 10.0 mi North 9.2 mph - N/A   Clear
6:14 AM 41.9 °F 37.5 °F 3.7 °F 21% 30.30 in 10.0 mi North 6.9 mph - N/A   Clear
6:34 AM 40.3 °F 35.5 °F 4.6 °F 23% 30.30 in 10.0 mi North 6.9 mph - N/A   Clear
6:54 AM 40.3 °F 37.1 °F 5.5 °F 24% 30.30 in 10.0 mi North 4.6 mph - N/A   Clear
7:14 AM 36.7 °F 32.0 °F 9.1 °F 32% 30.31 in 10.0 mi NW 5.8 mph - N/A   Clear
7:34 AM 39.2 °F 35.9 °F 10.4 °F 31% 30.31 in 10.0 mi NNW 4.6 mph - N/A   Clear
7:54 AM 44.8 °F 41.6 °F 8.2 °F 23% 30.32 in 10.0 mi North 5.8 mph - N/A   Clear
8:14 AM 48.0 °F - 8.4 °F 20% 30.32 in 10.0 mi Calm Calm - N/A   Clear
8:34 AM 50.5 °F - 6.4 °F 17% 30.32 in 10.0 mi Calm Calm - N/A   Clear
8:54 AM 52.2 °F - 4.6 °F 15% 30.33 in 10.0 mi NNW 4.6 mph - N/A   Clear
9:14 AM 53.4 °F - 5.9 °F 15% 30.34 in 10.0 mi NNW 3.5 mph - N/A   Clear
9:34 AM 54.9 °F - 7.2 °F 15% 30.34 in 10.0 mi NE 4.6 mph - N/A   Clear
9:54 AM 55.6 °F - 8.6 °F 15% 30.34 in 10.0 mi West 3.5 mph - N/A   Clear
10:14 AM 56.8 °F - 10.0 °F 16% 30.34 in 10.0 mi Calm Calm - N/A   Clear
10:34 AM 57.9 °F - 12.4 °F 17% 30.34 in 10.0 mi South 9.2 mph - N/A   Clear
10:54 AM 57.2 °F - 12.7 °F 17% 30.34 in 10.0 mi SSW 6.9 mph - N/A   Clear
11:14 AM 57.4 °F - 12.0 °F 17% 30.34 in 10.0 mi West 4.6 mph - N/A   Clear
11:34 AM 58.6 °F - 12.9 °F 17% 30.34 in 10.0 mi SSE 5.8 mph - N/A   Clear
11:54 AM 59.2 °F - 13.1 °F 16% 30.34 in 10.0 mi South 6.9 mph - N/A   Clear
12:14 PM 59.5 °F - 13.5 °F 16% 30.34 in 10.0 mi SSW 4.6 mph - N/A   Clear
12:34 PM 60.8 °F - 13.6 °F 16% 30.34 in 10.0 mi WSW 4.6 mph - N/A   Clear
12:54 PM 61.0 °F - 13.5 °F 16% 30.33 in 10.0 mi SW 4.6 mph - N/A   Clear
1:14 PM 61.5 °F - 13.1 °F 15% 30.32 in 10.0 mi SSW 4.6 mph - N/A   Clear
1:34 PM 62.1 °F - 13.5 °F 15% 30.31 in 10.0 mi Calm Calm - N/A   Clear
1:54 PM 63.7 °F - 16.0 °F 16% 30.31 in 10.0 mi Calm Calm - N/A   Clear
2:14 PM 63.7 °F - 15.3 °F 15% 30.31 in 10.0 mi Calm Calm - N/A   Clear
2:34 PM 63.9 °F - 15.6 °F 15% 30.31 in 10.0 mi WSW 3.5 mph - N/A   Clear
2:54 PM 64.0 °F - 15.8 °F 15% 30.31 in 10.0 mi South 5.8 mph - N/A   Clear
3:14 PM 64.0 °F - 15.4 °F 15% 30.31 in 10.0 mi SSE 3.5 mph - N/A   Clear
3:34 PM 65.1 °F - 17.2 °F 16% 30.31 in 10.0 mi WNW 6.9 mph - N/A   Clear
3:54 PM 64.4 °F - 17.1 °F 16% 30.31 in 10.0 mi East 3.5 mph - N/A   Clear
4:14 PM 64.6 °F - 19.9 °F 18% 30.31 in 10.0 mi Calm Calm - N/A   Clear
4:34 PM 64.4 °F - 19.9 °F 18% 30.31 in 10.0 mi SSE 4.6 mph - N/A   Clear
4:54 PM 64.0 °F - 21.2 °F 19% 30.32 in 10.0 mi East 5.8 mph - N/A   Clear
5:14 PM 63.5 °F - 21.7 °F 20% 30.32 in 10.0 mi South 3.5 mph - N/A   Clear
5:34 PM 63.0 °F - 23.0 °F 22% 30.32 in 10.0 mi Calm Calm - N/A   Clear
5:54 PM 61.3 °F - 23.4 °F 23% 30.33 in 10.0 mi Calm Calm - N/A   Clear
6:14 PM 58.1 °F - 22.5 °F 25% 30.33 in 10.0 mi NNW 3.5 mph - N/A   Clear
6:34 PM 55.9 °F - 28.6 °F 35% 30.34 in 10.0 mi NNE 4.6 mph - N/A   Clear
6:54 PM 52.9 °F - 29.3 °F 40% 30.34 in 10.0 mi NNE 6.9 mph - N/A   Clear
7:14 PM 51.8 °F - 30.0 °F 43% 30.34 in 10.0 mi North 4.6 mph - N/A   Clear
7:34 PM 50.0 °F - 30.6 °F 47% 30.34 in 10.0 mi NNW 5.8 mph - N/A   Clear
7:54 PM 49.8 °F - 30.9 °F 48% 30.34 in 10.0 mi North 4.6 mph - N/A   Clear
8:14 PM 47.7 °F - 30.6 °F 52% 30.34 in 10.0 mi NW 3.5 mph - N/A   Clear
8:34 PM 46.4 °F 43.5 °F 30.6 °F 54% 30.35 in 10.0 mi NW 5.8 mph - N/A   Clear
8:54 PM 46.2 °F 43.3 °F 30.2 °F 54% 30.35 in 10.0 mi NW 5.8 mph - N/A   Clear
9:14 PM 42.8 °F 38.6 °F 30.2 °F 61% 30.35 in 10.0 mi NW 6.9 mph - N/A   Clear
9:34 PM 42.1 °F 37.7 °F 28.9 °F 60% 30.36 in 10.0 mi WNW 6.9 mph - N/A   Clear
9:54 PM 43.2 °F 39.7 °F 27.3 °F 54% 30.36 in 10.0 mi West 5.8 mph - N/A   Clear
10:14 PM 46.2 °F 42.7 °F 26.6 °F 46% 30.36 in 10.0 mi WSW 6.9 mph - N/A   Clear
10:34 PM 46.4 °F 44.3 °F 27.0 °F 47% 30.36 in 10.0 mi West 4.6 mph - N/A   Clear
10:54 PM 46.4 °F - 27.5 °F 48% 30.36 in 10.0 mi Calm Calm - N/A   Clear
11:14 PM 45.5 °F 43.2 °F 26.1 °F 47% 30.35 in 10.0 mi West 4.6 mph - N/A   Clear
11:34 PM 44.8 °F 42.4 °F 23.4 °F 43% 30.34 in 10.0 mi West 4.6 mph - N/A   Clear
11:54 PM 43.7 °F 41.1 °F 21.9 °F 42% 30.34 in 10.0 mi West 4.6 mph - N/A   Clear